| time (UTC) | temp F | wind direction | speed knots | gust knots | rain 1hr in | rain 24hr in | rain mn in | humidity % | barometer mb |
| 20260831233705 | 91 | 147 | 3.5 | 7.0 | 0.00 | 0.21 | 0.21 | 33 | 1014.6 |
| 20260831232707 | 90 | 119 | 0.9 | 2.6 | 0.00 | 0.21 | 0.21 | 32 | 1014.7 |
| 20260831231805 | 92 | 151 | 0.9 | 2.6 | 0.00 | 0.21 | 0.21 | 31 | 1014.8 |
| 20260831230806 | 91 | 53 | 1.7 | 2.6 | 0.00 | 0.21 | 0.21 | 32 | 1014.7 |
| 20260831224807 | 89 | 75 | 5.2 | 7.8 | 0.00 | 0.21 | 0.21 | 33 | 1014.7 |
| 20260831222807 | 86 | 73 | 0.0 | 0.9 | 0.00 | 0.21 | 0.21 | 37 | 1015.1 |
| 20260831221807 | 85 | 73 | 5.2 | 10.4 | 0.00 | 0.21 | 0.21 | 37 | 1014.9 |
| 20260831214905 | 86 | 71 | 5.2 | 8.7 | 0.00 | 0.21 | 0.21 | 36 | 1015.3 |
| 20260831213921 | 86 | 43 | 6.1 | 13.9 | 0.00 | 0.21 | 0.21 | 37 | 1015.3 |
| 20260831212907 | 86 | 59 | 6.1 | 8.7 | 0.00 | 0.21 | 0.21 | 38 | 1015.6 |
| 20260831211006 | 86 | 66 | 6.1 | 12.2 | 0.01 | 0.21 | 0.21 | 38 | 1015.9 |
| 20260831210024 | 84 | 92 | 1.7 | 3.5 | 0.01 | 0.21 | 0.21 | 40 | 1016.1 |
| 20260831205022 | 84 | 112 | 1.7 | 2.6 | 0.01 | 0.21 | 0.21 | 42 | 1016.6 |
| 20260831204104 | 83 | 77 | 2.6 | 6.1 | 0.02 | 0.21 | 0.21 | 44 | 1016.6 |
| 20260831203106 | 81 | 67 | 0.0 | 0.9 | 0.02 | 0.21 | 0.21 | 46 | 1016.9 |
| 20260831202104 | 79 | 1 | 0.9 | 3.5 | 0.02 | 0.21 | 0.21 | 55 | 1017.0 |
| 20260831201124 | 76 | 302 | 5.2 | 7.8 | 0.01 | 0.20 | 0.20 | 67 | 1017.2 |
| 20260831200221 | 74 | 336 | 1.7 | 3.5 | 0.02 | 0.20 | 0.20 | 70 | 1016.7 |
| 20260831195307 | 75 | 103 | 2.6 | 5.2 | 0.03 | 0.20 | 0.20 | 71 | 1017.4 |
| 20260831194308 | 76 | 166 | 4.3 | 6.1 | 0.02 | 0.19 | 0.19 | 69 | 1017.6 |
| 20260831192306 | 74 | 45 | 0.0 | 0.0 | 0.18 | 0.19 | 0.19 | 75 | 1017.2 |
| 20260831191405 | 74 | 247 | 0.0 | 0.0 | 0.19 | 0.19 | 0.19 | 73 | 1017.4 |
| 20260831190405 | 75 | 255 | 0.9 | 3.5 | 0.18 | 0.18 | 0.18 | 70 | 1017.8 |
| 20260831185421 | 74 | 90 | 1.7 | 3.5 | 0.17 | 0.17 | 0.17 | 71 | 1017.8 |
| 20260831184508 | 72 | 67 | 1.7 | 4.3 | 0.17 | 0.17 | 0.17 | 73 | 1017.9 |
| 20260831183605 | 72 | 14 | 2.6 | 4.3 | 0.17 | 0.17 | 0.17 | 68 | 1017.9 |
| 20260831182624 | 79 | 98 | 3.5 | 6.1 | 0.05 | 0.05 | 0.04 | 52 | 1018.2 |
| 20260831180706 | 82 | 98 | 5.2 | 7.8 | 0.00 | 0.00 | 0.00 | 44 | 1017.3 |
| 20260831175707 | 83 | 114 | 9.6 | 13.9 | 0.00 | 0.00 | 0.00 | 42 | 1017.3 |
| 20260831174804 | 85 | 108 | 6.1 | 11.3 | 0.00 | 0.00 | 0.00 | 38 | 1017.3 |
| 20260831172905 | 85 | 89 | 4.3 | 7.0 | 0.00 | 0.00 | 0.00 | 39 | 1017.2 |
| 20260831172820 | 85 | 83 | 6.1 | 8.7 | 0.00 | 0.00 | 0.00 | 38 | 1017.2 |
| 20260831171907 | 86 | 86 | 3.5 | 7.0 | 0.00 | 0.00 | 0.00 | 38 | 1017.2 |
| 20260831171806 | 86 | 99 | 4.3 | 6.1 | 0.00 | 0.00 | 0.00 | 38 | 1017.3 |
| 20260831170822 | 86 | 59 | 4.3 | 7.0 | 0.00 | 0.00 | 0.00 | 36 | 1017.3 |
| 20260831170706 | 87 | 66 | 4.3 | 7.0 | 0.00 | 0.00 | 0.00 | 37 | 1017.3 |
| 20260831164707 | 85 | 95 | 4.3 | 8.7 | 0.00 | 0.00 | 0.00 | 38 | 1017.4 |
| 20260831163706 | 84 | 87 | 4.3 | 7.0 | 0.00 | 0.00 | 0.00 | 39 | 1017.6 |
| 20260831162705 | 84 | 83 | 6.1 | 10.4 | 0.00 | 0.00 | 0.00 | 38 | 1017.7 |
| 20260831161707 | 85 | 72 | 6.1 | 10.4 | 0.00 | 0.00 | 0.00 | 38 | 1017.6 |
| 20260831160704 | 84 | 81 | 4.3 | 7.8 | 0.00 | 0.00 | 0.00 | 38 | 1017.5 |
| 20260831160605 | 84 | 71 | 3.5 | 7.0 | 0.00 | 0.00 | 0.00 | 39 | 1017.4 |
| 20260831155622 | 84 | 113 | 2.6 | 4.3 | 0.00 | 0.00 | 0.00 | 39 | 1017.5 |
| 20260831154606 | 83 | 97 | 1.7 | 3.5 | 0.00 | 0.00 | 0.00 | 35 | 1017.5 |
| 20260831153621 | 81 | 225 | 0.0 | 0.0 | 0.00 | 0.00 | 0.00 | 35 | 1017.6 |
| 20260831152622 | 80 | 247 | 0.0 | 0.0 | 0.00 | 0.00 | 0.00 | 36 | 1017.6 |
| 20260831151703 | 79 | 246 | 1.7 | 2.6 | 0.00 | 0.00 | 0.00 | 36 | 1017.6 |
| 20260831150706 | 77 | 292 | 0.9 | 3.5 | 0.00 | 0.00 | 0.00 | 36 | 1017.5 |
| 20260831145706 | 77 | 292 | 0.9 | 2.6 | 0.00 | 0.00 | 0.00 | 37 | 1017.6 |
| 20260831144805 | 76 | 315 | 0.9 | 1.7 | 0.00 | 0.00 | 0.00 | 38 | 1017.7 |
| 20260831142806 | 74 | 292 | 0.0 | 0.0 | 0.00 | 0.00 | 0.00 | 41 | 1017.5 |
| 20260831141821 | 73 | 303 | 0.0 | 0.9 | 0.00 | 0.00 | 0.00 | 43 | 1017.5 |
| 20260831140821 | 72 | 292 | 0.0 | 0.0 | 0.00 | 0.00 | 0.00 | 44 | 1017.4 |
| 20260831135907 | 71 | 292 | 0.0 | 0.0 | 0.00 | 0.00 | 0.00 | 45 | 1017.2 |
| 20260831135003 | 70 | 292 | 0.0 | 0.0 | 0.00 | 0.00 | 0.00 | 44 | 1017.2 |
| 20260831134019 | 69 | 302 | 2.6 | 2.6 | 0.00 | 0.00 | 0.00 | 48 | 1016.9 |
| 20260831133021 | 69 | 315 | 0.0 | 0.0 | 0.00 | 0.00 | 0.00 | 45 | 1016.8 |
| 20260831132107 | 69 | 315 | 0.0 | 0.0 | 0.00 | 0.00 | 0.00 | 46 | 1016.7 |
| 20260831125220 | 69 | 22 | 0.0 | 0.9 | 0.00 | 0.00 | 0.00 | 47 | 1016.4 |
| 20260831124303 | 69 | 337 | 0.0 | 0.0 | 0.00 | 0.00 | 0.00 | 46 | 1016.3 |
| 20260831123304 | 69 | 337 | 0.9 | 1.7 | 0.00 | 0.00 | 0.00 | 47 | 1016.3 |
| 20260831122204 | 70 | 337 | 0.0 | 0.9 | 0.00 | 0.00 | 0.00 | 45 | 1016.0 |
| 20260831121219 | 71 | 337 | 0.0 | 0.0 | 0.00 | 0.00 | 0.00 | 41 | 1016.2 |
| 20260831120304 | 71 | 22 | 0.0 | 0.0 | 0.00 | 0.00 | 0.00 | 40 | 1016.0 |
| 20260831115319 | 71 | 112 | 0.9 | 1.7 | 0.00 | 0.00 | 0.00 | 40 | 1016.0 |
| 20260831114406 | 70 | 236 | 2.6 | 4.3 | 0.00 | 0.00 | 0.00 | 42 | 1015.9 |
| 20260831113405 | 70 | 315 | 0.0 | 0.0 | 0.00 | 0.00 | 0.00 | 45 | 1015.9 |
| 20260831112426 | 70 | 315 | 0.0 | 0.0 | 0.00 | 0.00 | 0.00 | 46 | 1015.9 |
| 20260831111520 | 71 | 331 | 0.0 | 1.7 | 0.00 | 0.00 | 0.00 | 43 | 1016.0 |
| 20260831110604 | 71 | 45 | 0.9 | 1.7 | 0.00 | 0.00 | 0.00 | 42 | 1015.9 |
| 20260831105622 | 70 | 67 | 0.9 | 3.5 | 0.00 | 0.00 | 0.00 | 41 | 1016.2 |
| 20260831104703 | 70 | 247 | 0.9 | 1.7 | 0.00 | 0.00 | 0.00 | 42 | 1016.0 |
| 20260831103705 | 70 | 247 | 1.7 | 2.6 | 0.00 | 0.00 | 0.00 | 47 | 1016.0 |
| 20260831102705 | 70 | 339 | 0.0 | 0.9 | 0.00 | 0.00 | 0.00 | 48 | 1015.9 |
| 20260831101720 | 70 | 315 | 0.0 | 1.7 | 0.00 | 0.00 | 0.00 | 47 | 1016.0 |
| 20260831100803 | 70 | 22 | 0.9 | 0.9 | 0.00 | 0.00 | 0.00 | 46 | 1016.0 |
| 20260831095808 | 70 | 337 | 0.0 | 0.9 | 0.00 | 0.00 | 0.00 | 44 | 1016.0 |
| 20260831094904 | 70 | 337 | 0.0 | 0.0 | 0.00 | 0.00 | 0.00 | 47 | 1015.8 |
| 20260831093919 | 71 | 337 | 0.0 | 0.0 | 0.00 | 0.00 | 0.00 | 48 | 1015.7 |
| 20260831092005 | 72 | 337 | 0.0 | 0.0 | 0.00 | 0.00 | 0.00 | 43 | 1015.5 |
| 20260831091007 | 72 | 337 | 1.7 | 1.7 | 0.00 | 0.00 | 0.00 | 40 | 1015.4 |
| 20260831090006 | 71 | 360 | 1.7 | 2.6 | 0.00 | 0.00 | 0.00 | 47 | 1015.3 |
| 20260831085006 | 72 | 292 | 0.9 | 1.7 | 0.00 | 0.00 | 0.00 | 46 | 1015.2 |
| 20260831084020 | 73 | 292 | 0.0 | 0.0 | 0.00 | 0.00 | 0.00 | 44 | 1015.2 |
| 20260831083019 | 73 | 292 | 0.0 | 0.0 | 0.00 | 0.00 | 0.00 | 45 | 1015.2 |
| 20260831082105 | 73 | 315 | 0.9 | 0.9 | 0.00 | 0.00 | 0.00 | 42 | 1015.2 |
| 20260831081107 | 73 | 315 | 0.0 | 0.0 | 0.00 | 0.00 | 0.00 | 43 | 1015.1 |
| 20260831080105 | 73 | 315 | 0.0 | 0.0 | 0.00 | 0.00 | 0.00 | 42 | 1014.9 |
| 20260831075105 | 74 | 315 | 0.0 | 0.0 | 0.00 | 0.00 | 0.00 | 41 | 1014.9 |
| 20260831075022 | 74 | 315 | 0.0 | 0.0 | 0.00 | 0.00 | 0.00 | 41 | 1014.9 |
| 20260831074103 | 75 | 352 | 0.0 | 1.7 | 0.00 | 0.00 | 0.00 | 38 | 1014.8 |
| 20260831073120 | 75 | 360 | 1.7 | 1.7 | 0.00 | 0.00 | 0.00 | 39 | 1014.9 |
| 20260831072204 | 76 | 67 | 0.0 | 0.0 | 0.00 | 0.00 | 0.00 | 38 | 1015.1 |
| 20260831071220 | 75 | 337 | 0.0 | 0.0 | 0.00 | 0.00 | 0.00 | 38 | 1014.9 |
| 20260831070303 | 76 | 337 | 0.0 | 0.0 | 0.00 | 0.00 | 0.00 | 37 | 1014.8 |
| 20260831065319 | 76 | 337 | 0.0 | 0.0 | 0.00 | 0.00 | 0.00 | 37 | 1014.7 |
| 20260831064305 | 77 | 337 | 0.0 | 0.0 | 0.00 | 0.00 | 0.00 | 36 | 1014.8 |
| 20260831063304 | 78 | 337 | 0.0 | 0.0 | 0.00 | 0.00 | 0.00 | 34 | 1014.7 |
| 20260831061306 | 78 | 314 | 3.5 | 5.2 | 0.00 | 0.00 | 0.00 | 36 | 1014.6 |
| 20260831060320 | 79 | 22 | 0.9 | 1.7 | 0.00 | 0.00 | 0.00 | 34 | 1014.7 |
| 20260831055319 | 79 | 90 | 0.9 | 0.9 | 0.00 | 0.00 | 0.00 | 35 | 1014.7 |
| 20260831053319 | 80 | 247 | 0.0 | 0.0 | 0.00 | 0.00 | 0.00 | 34 | 1014.7 |
| 20260831052417 | 80 | 247 | 0.0 | 0.0 | 0.00 | 0.00 | 0.00 | 32 | 1014.9 |
| 20260831050517 | 80 | 315 | 0.0 | 0.0 | 0.00 | 0.00 | 0.00 | 35 | 1014.6 |
| 20260831044618 | 80 | 337 | 0.0 | 0.0 | 0.00 | 0.00 | 0.00 | 36 | 1014.4 |
| 20260831043619 | 80 | 337 | 0.0 | 0.0 | 0.00 | 0.00 | 0.00 | 36 | 1014.5 |
| 20260831042619 | 81 | 337 | 0.0 | 0.0 | 0.00 | 0.00 | 0.00 | 35 | 1014.4 |
| 20260831041717 | 82 | 337 | 0.0 | 0.0 | 0.00 | 0.00 | 0.00 | 33 | 1014.4 |
| 20260831040733 | 82 | 337 | 0.0 | 0.0 | 0.00 | 0.00 | 0.00 | 33 | 1014.2 |
| 20260831035737 | 82 | 337 | 0.0 | 0.0 | 0.00 | 0.00 | 0.00 | 33 | 1014.0 |
| 20260831034818 | 82 | 337 | 0.0 | 0.0 | 0.00 | 0.00 | 0.00 | 34 | 1013.8 |
| 20260831033834 | 82 | 337 | 0.0 | 0.0 | 0.00 | 0.00 | 0.00 | 33 | 1013.6 |
| 20260831032921 | 83 | 337 | 0.0 | 0.9 | 0.00 | 0.00 | 0.00 | 33 | 1013.5 |
| 20260831032019 | 83 | 337 | 0.0 | 0.0 | 0.00 | 0.00 | 0.00 | 32 | 1013.4 |
| 20260831031114 | 85 | 337 | 0.0 | 0.0 | 0.00 | 0.00 | 0.00 | 30 | 1013.5 |
| 20260831030211 | 85 | 337 | 0.0 | 0.0 | 0.00 | 0.00 | 0.00 | 29 | 1013.3 |
| 20260831025228 | 86 | 337 | 0.0 | 0.9 | 0.00 | 0.00 | 0.00 | 29 | 1013.2 |
| 20260831024212 | 87 | 225 | 0.0 | 0.0 | 0.00 | 0.00 | 0.00 | 27 | 1013.1 |
| 20260831023228 | 88 | 225 | 0.0 | 0.0 | 0.00 | 0.00 | 0.00 | 26 | 1013.1 |
| 20260831022313 | 89 | 225 | 0.0 | 0.0 | 0.00 | 0.00 | 0.00 | 24 | 1013.1 |
| 20260831021327 | 89 | 225 | 0.0 | 0.0 | 0.00 | 0.00 | 0.00 | 25 | 1012.9 |
| 20260831020313 | 90 | 225 | 0.0 | 0.0 | 0.00 | 0.00 | 0.00 | 24 | 1013.0 |
| 20260831015311 | 91 | 225 | 0.0 | 0.0 | 0.00 | 0.00 | 0.00 | 22 | 1013.0 |
| 20260831014329 | 92 | 292 | 0.0 | 0.0 | 0.00 | 0.00 | 0.00 | 22 | 1012.9 |
| 20260831014213 | 92 | 292 | 0.0 | 0.9 | 0.00 | 0.00 | 0.00 | 22 | 1012.8 |
| 20260831013211 | 92 | 270 | 0.0 | 0.9 | 0.00 | 0.00 | 0.00 | 21 | 1012.8 |
| 20260831012228 | 93 | 231 | 4.3 | 6.1 | 0.00 | 0.00 | 0.00 | 21 | 1012.8 |
| 20260831011213 | 93 | 240 | 3.5 | 7.0 | 0.00 | 0.00 | 0.00 | 21 | 1012.9 |
| 20260831010310 | 94 | 285 | 4.3 | 6.1 | 0.00 | 0.00 | 0.00 | 20 | 1012.8 |
| 20260831005410 | 94 | 267 | 4.3 | 6.1 | 0.00 | 0.00 | 0.00 | 20 | 1012.9 |
| 20260831004427 | 94 | 223 | 5.2 | 7.8 | 0.00 | 0.00 | 0.00 | 21 | 1012.8 |
| 20260831003412 | 94 | 287 | 4.3 | 7.8 | 0.00 | 0.00 | 0.00 | 22 | 1013.0 |
| 20260831001429 | 95 | 247 | 5.2 | 8.7 | 0.00 | 0.00 | 0.00 | 21 | 1013.0 |
| 20260831000429 | 95 | 264 | 5.2 | 9.6 | 0.00 | 0.00 | 0.00 | 21 | 1013.1 |
| 20260830234428 | 94 | 243 | 3.5 | 5.2 | 0.00 | 0.00 | 0.00 | 21 | 1012.9 |